星链-36938(STARLINK-36938)

导读

STARLINK-36938(NORAD编号68124)是美国SpaceX公司星链(Starlink)卫星互联网星座的组成卫星,归属星链第二代卫星组网序列,运行于近地低轨轨道。 作为星链全球网络的节点,它承担提供覆盖全球的高速低延迟互联网接入服务,支持偏远地区网络覆盖、商业与应急通信等应用。目前该卫星随星链整体轨道调整计划,正参与SpaceX 2026年将星链轨道高度从550公里降至480公里的工程,以此降低碰撞风险,减少太空垃圾隐患,属于当前在轨正常运营的星链卫星之一。

基本信息
目录编号:
68124
目录名称:
STARLINK-36938
国际标识:
2026-044Z
轨道中心:
EARTH
卫星名称:
星链-36938
卫星全名:
星链-36938(STARLINK-36938)
卫星状态:
在轨 (已飞行189 天)
发射日期:
2026-03-08 UTC
国别 :
美国 (US)
星等 :
--
该卫星已列入 空间交会检测服务 Space Conjunction Data Service (SCDS) ,当前飞行风险评估等级: 无高风险
轨道信息
数据来源 国际轨道数据 AOE轨道数据
星历时间 2026-09-13T04:55:34+0800
12小时前
查看轨道信息
2026-09-10T07:00:00+0800
3天前
查看轨道信息
半长轴 6843.674km 6843.586km
偏心率 0.0002082 0.0001895
轨道倾角 97.285° 97.286°
近地点辐角 84.271° 99.943°
升交点赤经 217.905° 215.032°
平近点角 275.877° 26.561°
近地点 464.112km 464.152km
远地点 466.962km 466.746km
周期 93.906分钟 93.904分钟
每日圈数 15.334472 15.334767
详细信息
固有亮度:
5
最大亮度:
2.5
卫星平台:
Starlink V1.0
覆盖范围:
全球
运营商:
太空探索技术公司
运营商所在国:
美国
制造商(研发单位):
太空探索技术公司
制造商所在国:
美国
使用方式:
暂无
卫星简介
Starlink 计划是 SpaceX 推出的全球卫星互联网项目,通过发射低轨道卫星,为全球尤其是偏远地区提供高速、低延迟的互联网服务。自 2019 年起,Starlink 已部署数千颗卫星,旨在缩小全球数字鸿沟,推动互联网普及。该项目还为军事、航空等行业提供通信支持,带来广泛经济效益。
2D轨道图
3D轨道图
轨道高度分析图
轨道倾角分析图
轨道综合分析图
查看轨道综合分析图
交会数据列表
事件ID 空间交会对象 最接近时刻(TCA) 交会距离 交会风险概率(CRP) 交会风险指数(CRI) 操作
CDM_260914-055405-236706-812421
2026-09-14T
05:54:56+0000
2.145 km
极远距离
2.395851E-6 低风险 0.43
CDM_260914-033705-324406-812421
2026-09-14T
03:37:11+0000
2.497 km
极远距离
1.730525E-6 低风险 0.4
CDM_260915-083704-945106-812421
2026-09-15T
08:37:11+0000
2.524 km
极远距离
1.682411E-6 低风险 0.4
CDM_260912-153505-236406-812422
2026-09-12T
15:35:21+0000
2.734 km
极远距离
1.495667E-6 低风险 0.38
CDM_260915-061604-945106-812421
2026-09-15T
06:16:17+0000
2.828 km
极远距离
1.406383E-6 低风险 0.38
CDM_260913-120104-841206-812421
2026-09-13T
12:01:36+0000
2.706 km
极远距离
1.236083E-6 低风险 0.37
与全量物体交会距离演化趋势
与全量物体交会风险概率演化趋势